Location: Anaheim Mobile Home Estates
(33.8153°N, 117.9967°W)
Time: 17:00:38
(UTC+00:00)

Cosmos 2221 Rocket - Pass Details

Date: 05 August 2024
Orbit: 618 x 644 km, 82.5° (Epoch: 07 September)

Event Time Altitude Azimuth Distance (km) Brightness Sun altitude
Rises 12:31:47 0° 354° (N) 2,958 7.3 -7.6°
Reaches altitude 10° 12:34:02 10° 356° (N) 2,046 6.5 -7.2°
Maximum altitude 12:38:35 81° 83° (E) 657 3.8 -6.3°
Drops below altitude 10° 12:43:06 10° 171° (S) 2,029 6.1 -5.5°
Sets 12:45:20 0° 172° (S) 2,932 6.9 -5.0°
